Regional Weather Roundup
Issued by NWS

Home | Current Version | Previous Version | Text Only | Print | Product List | Glossary On
Versions: 1 2 3 4 5 6 7 8 9 10 11 12 13 14 15 16 17 18 19 20 21 22 23 24 25 26 27 28 29 30 31 32 33 34 35 36 37 38 39 40 41 42 43 44 45 46 47 48 49 50
000
ASUS43 KLSX 260359
RWRMO

WEATHER SUMMARY FOR MISSOURI
NATIONAL WEATHER SERVICE SPRINGFIELD MO
1000 PM CST TUE NOV 25 2014

NOTE: "FAIR" INDICATES FEW OR NO CLOUDS BELOW 12,000 FEET WITH NO
       SIGNIFICANT WEATHER AND/OR OBSTRUCTIONS TO VISIBILITY.
       CURRENT SKY AND/OR WEATHER CONDITIONS ARE NOT AVAILABLE FOR
       CHILLICOTHE AND FARMINGTON.

MOZ001>031-035>038-043-044-053-054-260500-
...NORTHERN AND WESTERN MISSOURI...

CITY           SKY/WX    TMP DP  RH WIND       PRES   REMARKS
KANSAS CTY INT CLOUDY    37  21  52 S13       30.02F WCI  29
KANSAS C DTWN  CLOUDY    40  20  44 S9        30.04F
LEE`S SUMMIT   CLOUDY    36  18  48 S9        30.05F WCI  29
ST JOSEPH      CLOUDY    38  22  52 S10       30.01F
CHILLICOTHE      N/A     32  17  54 SE5       30.07F WCI  27
KIRKSVILLE     PTCLDY    25  19  78 SE8       30.10F WCI  16

$$
MOZ066>068-077>081-088>096-101>105-260500-
...SOUTHWEST MISSOURI...

CITY           SKY/WX    TMP DP  RH WIND       PRES   REMARKS
SPRINGFIELD    MOCLDY    29  21  72 SE6       30.12S WCI  23
JOPLIN         PTCLDY    35  21  56 SE9       30.10F WCI  28

$$
MOZ032>034-039>042-045>050-055>058-069>072-260500-
...CENTRAL MISSOURI...

CITY           SKY/WX    TMP DP  RH WIND       PRES   REMARKS
COLUMBIA       CLEAR     31  16  54 SE7       30.13S WCI  24
JEFFERSON CITY CLEAR     25  19  78 SE7       30.16S WCI  17
ROLLA          CLEAR     27  17  66 SE8       30.12S WCI  19
SEDALIA        PTCLDY    29  17  61 S10       30.11F WCI  20
WARRENSBURG    CLOUDY    32  19  59 SE8       30.08F WCI  25
OSAGE BEACH    PTCLDY    27  18  69 SE5       30.13F WCI  21

$$
MOZ051-052-059>065-260500-
...EAST CENTRAL MISSOURI...

CITY           SKY/WX    TMP DP  RH WIND       PRES   REMARKS
ST LOUIS INTL  PTCLDY    30  22  72 SE5       30.18F WCI  25
SPIRIT OF STL  CLEAR     25  22  88 CALM      30.17S
ST CHARLES     CLEAR     28  26  92 E5        30.18S WCI  23

$$
MOZ072>076-082>087-097>100-106>115-260500-
...SOUTH CENTRAL AND SOUTHEAST MISSOURI...

CITY           SKY/WX    TMP DP  RH WIND       PRES   REMARKS
CAPE GIRARDEAU CLEAR     27  24  89 E3        30.20S
FARMINGTON     CLEAR     25  21  86 CALM      30.17S
POPLAR BLUFF   CLEAR     28  24  85 CALM      30.18F
WEST PLAINS    CLEAR     26  19  74 CALM      30.15S

$$



USA.gov is the U.S. government's official web portal to all federal, state and local government web resources and services.